Regional Weather Roundup
Issued by NWS Charleston, SC

Current Version | Previous Version | Graphics & Text | Print | Product List | Glossary On
Versions: 1 2 3 4 5 6 7 8 9 10 11 12 13 14 15 16 17 18 19 20 21 22 23 24 25 26 27 28 29 30 31 32 33 34 35 36 37 38 39 40 41 42 43 44 45 46 47 48 49 50
000 ASUS42 KCHS 310512 RWRCHS REGIONAL WEATHER ROUNDUP NATIONAL WEATHER SERVICE CHARLESTON SC 100 AM EDT MON AUG 31 2015 NOTE: "FAIR" INDICATES FEW OR NO CLOUDS BELOW 12,000 FEET WITH NO SIGNIFICANT WEATHER AND/OR OBSTRUCTIONS TO VISIBILITY. NOT ALL STATIONS ARE QUALITY CONTROLLED BY THE NATIONAL WEATHER SERVICE. USE DATA WITH CAUTION...ESPECIALLY DEWPOINT OBSERVATIONS. SCZ027-030-031-034>040-042>050-310600- ...SOUTHEAST SOUTH CAROLINA... CITY SKY/WX TMP DP RH WIND PRES REMARKS N CHARLESTON CLOUDY 77 73 87 SE8 30.06S WATERFRONT PRK N/A 80 75 84 SE12 30.04R MOUNT PLEASANT LGT RAIN 79 73 83 SE3 30.07S JOHNS ISLAND FAIR 79 75 89 SE5 30.07S PINOPOLIS N/A 75 73 94 E5 30.01R MONCKS CORNER FAIR 73 72 94 CALM 30.08R SUMMERVILLE CLOUDY 72 72 100 CALM 30.08S BEAUFORT MCAS RAIN 78 76 93 SE3 30.05S BEAUFORT ARPT CLOUDY 77 75 94 CALM 30.05R HILTON HEAD IS CLOUDY 79 75 89 SE5 30.06R WALTERBORO DRIZZLE 77 73 88 E8 30.03F ALLENDALE CLOUDY 73 73 100 CALM 30.06S ...SOUTHERN MIDLANDS AND PEE DEE... CITY SKY/WX TMP DP RH WIND PRES REMARKS GEORGETOWN NOT AVBL KINGSTREE NOT AVBL ORANGEBURG LGT RAIN 73 71 93 E8 30.08S BARNWELL CLOUDY 72 72 100 CALM 30.08F AIKEN FAIR 64 64 100 CALM 30.12S MANNING CLOUDY 72 72 100 CALM 30.08F COLUMBIA LGT RAIN 72 69 90 VRB6 30.07F SUMTER LGT RAIN 72 70 94 N7 30.07F FOG FLORENCE CLOUDY 72 70 93 NE3 30.09F MYRTLE BEACH CLOUDY 79 72 78 SE8 30.11S N MYRTLE BEACH CLOUDY 79 72 79 SE9 30.10R $$ GAZ063-065-086>088-099>101-113>116-118-119-134>141-150-310600- ...SOUTHEAST GEORGIA... CITY SKY/WX TMP DP RH WIND PRES REMARKS SAVANNAH ARPT CLOUDY 75 73 93 CALM 30.05R HUNTER AAF CLOUDY 75 75 100 N3 30.02R FORT STEWART FOG 75 73 94 CALM 30.02S VSB 3/4 STATESBORO CLOUDY 74 32 21 NE5 30.05F SYLVANIA CLOUDY 75 75 100 NE3 30.07S FOG CLAXTON NOT AVBL ...CSRA...CENTRAL AND FAR SOUTHEAST GEORGIA... CITY SKY/WX TMP DP RH WIND PRES REMARKS THOMSON PTCLDY 69 69 100 CALM 30.14R AUGUSTA-BUSH CLOUDY 69 68 96 CALM 30.07F AUGUSTA-DANIEL CLEAR 76 67 73 E5 30.09F SWAINSBORO CLOUDY N/A N/A N/A NE5 30.07F VIDALIA CLOUDY 73 72 94 NE6 30.06S EASTMAN CLOUDY 75 75 100 CALM 30.08S HAZLEHURST CLOUDY 76 76 100 E3 30.04F ALMA CLOUDY 75 74 96 N5 30.03F WAYCROSS CLOUDY 79 79 99 E3 30.03S JESUP FAIR 77 77 100 CALM 30.04S BAXLEY CLOUDY 77 75 94 CALM 30.04S BRUNSWICK CLOUDY 73 73 100 CALM 30.03F SAINT SIMONS LGT RAIN 79 76 90 SE7 30.02F $$ SCZ027-028-034-036>038-045-046-048>050-GAZ119-141-310600- ...LAKE AND SUPPLEMENTAL COASTAL OBSERVATIONS... STATION/POSITION TIME TEMP WIND PRES WAVE SWELL AIR SEA DIR/SP/G HT/PER HT/PER/DIR (UTC) (F) (DEG/KT/KT) (MB) (FT/S) (FT/S/D) UPR LAKE MARION NOT AVBL WINYAH BAY NOT AVBL LAKE MURRAY 0400 71 80/ 7/ 9 1018.6F ACE BASIN NERRS NOT AVBL FORT PULASKI NOT AVBL SAPELO ISLAND 0400 79 140/ 5 1017.0S $$ ANZ835-935-AMZ111-154-330-350-352-354-370-450-454-472-310600- ...C-MAN AND BUOY OBSERVATIONS... STATION/POSITION TIME TEMP WIND PRES WAVE SWELL AIR SEA DIR/SP/G HT/PER HT/PER/DIR (UTC) (F) (DEG/KT/KT) (MB) (FT/S) (FT/S/D) BUOY 41004 0450 81 84 140/ 14/ 16 1017.8R 5/11 3/11 BUOY 41008 0450 81 84 130/ 12/ 14 1017.1R 5/11 3/110/11 FOLLY BEACH CMAN 0400 80 130/ 17/ 18 1018.1F CAPERS NEARSHORE 0408 81 140/ 16/ 21 1018.5F FRIPP NEARSHORE 0400 81 150/ 14/ 17 1017.2R STATION/POSITION TIME TEMP WIND PRES WAVE SWELL AIR SEA DIR/SP/G HT/PER HT/PER/DIR (UTC) (F) (DEG/KT/KT) (MB) (FT/S) (FT/S/D) 5E ST. MARYS GA 0421 85 N/A 5/12 2/100/12 FRYING PAN BUOY 0450 80 82 130/ 16/ 19 1019.6F 4/10 3/140/10 BUOY 41025 0450 79 84 300/ 2/ 4 1020.4F 3/10 3/110/10 CAPE LOOKOUT NC 0400 78 CALM / 1 1019.6F BUOY 41002 0450 83 84 170/ 10/ 12 1020.5F 4/ 9 3/140/ 9 BUOY 41010 0420 80 86 200/ 21/ 31 1019.0R ST AUGUSTINE FL 0500 80 84 180/ 14/ 16 1016.6F $$

USA.gov is the U.S. government's official web portal to all federal, state and local government web resources and services.